Change the Weather History Date:

Thursday, September 22, 2011

  Actual Average Record
Temperature  
Mean Temperature 83 °F 78 °F  
Max Temperature 93 °F 89 °F 102 °F (2005)
Min Temperature 72 °F 68 °F 49 °F (1918)
Degree Days  
Heating Degree Days 0 0  
Month to date heating degree days 0 0  
Since 1 July heating degree days 0 0  
Cooling Degree Days 18 13  
Month to date cooling degree days 416 355  
Year to date cooling degree days 3563 2701  
Growing Degree Days 32 (Base 50)    
Moisture  
Dew Point 65 °F    
Average Humidity 63    
Maximum Humidity 90    
Minimum Humidity 36    
Precipitation  
Precipitation T in 0.10 in 2.40 in (1958)
Month to date precipitation 1.68 2.35  
Year to date precipitation 12.60 27.87  
Sea Level Pressure  
Sea Level Pressure 30.00 in    
Wind  
Wind Speed 5 mph (NNE)    
Max Wind Speed 22 mph    
Max Gust Speed 28 mph    
Visibility 10 miles    
Events Rain , Thunderstorm    
T = Trace of Precipitation, MM = Missing Value Source: NWS Daily Summary

Daily Weather History Graph

Daily Weather History Graph

Search for Another Location

Airport or City:

Trip Planner

Search our weather history database for the weather conditions in past years. The results will help you decide how hot, cold, wet, or windy it might be!

Date:

Astronomy

Sep. 22, 2011 Rise Set
Actual Time 7:13 AM CDT 7:22 PM CDT
Civil Twilight 6:49 AM CDT 7:46 PM CDT
Nautical Twilight 6:21 AM CDT 8:14 PM CDT
Astronomical Twilight 5:53 AM CDT 8:42 PM CDT
Moon 1:56 AM CDT (9/22) 3:57 PM CDT (9/22)
Length of Visible Light 12h 56m
Length of Day
12h 08m
Waning Crescent, 28% of the Moon is Illuminated
Sep 22
Waning Crescent
Sep 27
New
Oct 3
First Quarter
Oct 11
Full
Oct 19
Last Quarter

Hourly Weather History & Observations

Time (CDT) Temp. Heat Index Dew Point Humidity Pressure Visibility Wind Dir Wind Speed Gust Speed Precip Events Conditions
12:53 AM 78.1 °F - 66.9 °F 68% 30.02 in 10.0 mi South 5.8 mph - N/A   Clear
1:53 AM 75.9 °F - 68.0 °F 76% 30.01 in 10.0 mi South 3.5 mph - N/A   Clear
2:53 AM 73.9 °F - 68.0 °F 82% 30.00 in 10.0 mi Calm Calm - N/A   Clear
3:53 AM 73.9 °F - 68.0 °F 82% 29.99 in 10.0 mi Calm Calm - N/A   Clear
4:53 AM 73.0 °F - 68.0 °F 84% 29.98 in 10.0 mi Calm Calm - N/A   Clear
5:53 AM 72.0 °F - 68.0 °F 87% 29.98 in 10.0 mi Calm Calm - N/A   Clear
6:53 AM 73.0 °F - 68.0 °F 84% 29.99 in 10.0 mi Calm Calm - N/A   Clear
7:53 AM 73.0 °F - 69.1 °F 87% 30.01 in 7.0 mi ESE 3.5 mph - N/A   Clear
8:53 AM 77.0 °F - 69.8 °F 78% 30.04 in 10.0 mi Calm Calm - N/A   Clear
9:53 AM 82.0 °F 83.8 °F 64.9 °F 56% 30.03 in 10.0 mi SW 4.6 mph - N/A   Clear
10:53 AM 84.2 °F 85.0 °F 62.6 °F 48% 30.07 in 10.0 mi Calm Calm - N/A   Clear
11:53 AM 89.1 °F 89.3 °F 62.1 °F 40% 30.05 in 10.0 mi Variable 4.6 mph - N/A   Clear
12:53 PM 91.0 °F 91.5 °F 62.1 °F 38% 30.03 in 10.0 mi WNW 6.9 mph - N/A   Clear
1:53 PM 91.0 °F 90.9 °F 61.0 °F 36% 30.00 in 10.0 mi Calm Calm - N/A   Partly Cloudy
2:53 PM 91.0 °F 90.9 °F 61.0 °F 36% 29.98 in 10.0 mi Calm Calm - N/A   Mostly Cloudy
3:53 PM 87.1 °F 90.6 °F 68.0 °F 53% 29.96 in 10.0 mi NE 5.8 mph - 0.00 in Rain Light Rain
4:53 PM 90.0 °F 90.6 °F 63.0 °F 40% 29.95 in 10.0 mi ENE 3.5 mph - 0.00 in   Clear
5:19 PM 87.8 °F 89.4 °F 64.4 °F 46% 29.97 in 10.0 mi NNE 15.0 mph 27.6 mph N/A Thunderstorm Thunderstorm
5:34 PM 87.8 °F 89.4 °F 64.4 °F 46% 29.97 in 10.0 mi NE 10.4 mph - N/A   Scattered Clouds
5:53 PM 86.0 °F 87.6 °F 64.9 °F 49% 29.96 in 10.0 mi NE 9.2 mph - N/A   Scattered Clouds
6:53 PM 86.0 °F 87.6 °F 64.9 °F 49% 29.97 in 10.0 mi NE 5.8 mph - N/A   Clear
7:53 PM 84.0 °F 84.5 °F 62.1 °F 47% 29.96 in 10.0 mi NNE 5.8 mph - N/A   Clear
8:53 PM 81.0 °F 81.9 °F 62.1 °F 52% 29.99 in 10.0 mi NNW 4.6 mph - N/A   Clear
9:53 PM 81.0 °F 81.1 °F 57.9 °F 45% 30.02 in 10.0 mi North 12.7 mph - N/A   Clear
10:53 PM 75.9 °F - 59.0 °F 56% 30.06 in 10.0 mi North 15.0 mph - N/A   Clear
11:53 PM 73.9 °F - 59.0 °F 59% 30.06 in 10.0 mi North 13.8 mph - N/A   Clear